Weather Service Report


589 
ASUS41 KPHI 300011
RWRPHI

REGIONAL WEATHER ROUNDUP
NATIONAL WEATHER SERVICE MOUNT HOLLY NJ
800 PM EDT SAT AUG 29 2015

NOTE:  "FAIR" INDICATES FEW OR NO CLOUDS BELOW 12,000 FEET WITH NO
SIGNIFICANT WEATHER AND/OR OBSTRUCTIONS TO VISIBILITY.

 * = STATION DOES NOT REPORT PRECIPITATION (E.G. RAIN, SNOW, ETC.) 
        OR FOG.

NJZ015>026-300100-
SOUTHERN NEW JERSEY
  
CITY           SKY/WX    TMP DP  RH WIND       PRES   REMARKS
POMONA         PTCLDY    75  62  64 S7        30.12F                  
6HR MIN TEMP:  75; 6HR MAX TEMP:  85;                                

WILDWOOD*      PTCLDY    73  61  64 S9        30.14S                  
MILLVILLE      MOCLDY    74  62  66 S3        30.12F                  
WRIGHTSTOWN    PTCLDY    75  61  62 S7        30.08S                  
MOUNT HOLLY    PTCLDY    77  63  61 CALM      30.10R                  
TRENTON        CLEAR     79  62  56 CALM      30.09S                  
6HR MIN TEMP:  79; 6HR MAX TEMP:  85;                                


$$
NJZ001>014-300100-
NORTHERN NEW JERSEY
  
CITY           SKY/WX    TMP DP  RH WIND       PRES   REMARKS
SUSSEX         CLEAR     72  63  73 CALM      30.10S                  
ANDOVER*         N/A     70  65  84 CALM      30.11S                  
MORRISTOWN     MOCLDY    79  57  47 W7        30.10S                  
NEWARK         PTCLDY    78  60  53 S6        30.10S                  
TETERBORO      CLEAR     77  58  51 S9        30.09S                  
CALDWELL       CLEAR     78  60  53 S3        30.10R                  
SOMERVILLE     CLEAR     74  62  66 CALM      30.07S                  
ALLAIRE*       PTCLDY    75  57  53 S5        30.12S                  
TOMS RIVER*    PTCLDY    73  61  64 S5        30.12S                  

$$
PAZ043-044-047-054-055-060>062-066>071-300100-
EASTERN PENNSYLVANIA
  
CITY           SKY/WX    TMP DP  RH WIND       PRES   REMARKS
PHILADELPHIA   PTCLDY    81  61  50 SW14      30.11R                  
6HR MIN TEMP:  81; 6HR MAX TEMP:  87;                                

NORTH PHILA    PTCLDY    81  60  48 SW7       30.11R                  
BLUE BELL      CLEAR     79  64  61 SW3       30.10S                  
DOYLESTOWN     CLEAR     75  62  64 S3        30.10S                  
QUAKERTOWN*    PTCLDY    77  64  65 CALM      30.12S                  
POTTSTOWN      PTCLDY    77  63  61 CALM      30.12S                  
LANCASTER      CLEAR     76  64  66 S6        30.10S                  
COATESVILLE    CLEAR     73  64  73 CALM      30.13S                  
READING        CLEAR     77  63  61 S6        30.09S                  
6HR MIN TEMP:  77; 6HR MAX TEMP:  85;                                

ALLENTOWN      PTCLDY    76  63  64 SW6       30.10S                  
6HR MIN TEMP:  76; 6HR MAX TEMP:  85;                                

MOUNT POCONO   CLEAR     70  60  70 SW3       30.16S                  
6HR MIN TEMP:  70; 6HR MAX TEMP:  78;                                

HAZLETON       CLEAR     72  61  68 CALM      30.18R                  
WILKES BARRE   PTCLDY    75  60  59 CALM      30.10S                  

$$
DEZALL-MDZ008-012-015-019-020-300100-
DELAWARE AND EASTERN MARYLAND
  
CITY           SKY/WX    TMP DP  RH WIND       PRES   REMARKS
WILMINGTON     PTCLDY    76  64  66 S15       30.12S                  
6HR MIN TEMP:  76; 6HR MAX TEMP:  84;                                

DOVER          PTCLDY    74  65  72 SE8       30.10S                  
GEORGETOWN     MOCLDY    73  61  65 S7        30.13F                  
6HR MIN TEMP:  73; 6HR MAX TEMP:  86;                                

PATUXENT       CLOUDY    74  63  68 S7        30.11F                  
OCEAN CITY     MOCLDY    76  60  57 S6        30.14S                  
WALLOPS ISLAND CLOUDY    74  62  66 S6        30.14F                  
CAMBRIDGE      CLOUDY    77  63  61 S5        30.12S                  
SALISBURY      MOCLDY    72  63  73 SE5       30.13S                  

$$
PAZ001-021-NYZ056-072-MDZ011-DCZ001-300100-
OTHER NEARBY LOCATIONS
  
CITY           SKY/WX    TMP DP  RH WIND       PRES   REMARKS
HARRISBURG     MOCLDY    74  67  78 SE6       30.08S                  
STATE COLLEGE  CLEAR     75  59  57 CALM      30.11F                  
WILLIAMSPORT   CLEAR     71  64  78 CALM      30.07F                  
BINGHAMTON     PTCLDY    70  58  65 SW6       30.12F                  
NEW YORK CITY  CLEAR     77  58  51 CALM      30.13S                  
BALTIMORE      MOCLDY    76  64  66 SE6       30.09S                  
WASHINGTON DC  CLOUDY    81  66  60 S12       30.10S                  

$$

Return to Home page


Western Regional Climate Center, wrcc@dri.edu